Hourly Data Report for October 27, 2015

All times are specified in Local Standard Time (LST). Add 1 hour to adjust for Daylight Saving Time where and when it is observed.

KAMLOOPS A
BRITISH COLUMBIA

50°42'09.000" N
120°26'55.000" W
345.30 m
1163781
71887
YKA

Download Data

Hourly Data (October 2015)
Hourly Data Report for October 27, 2015
Temp Definition
°C
Dew Point Temp Definition
°C
Rel Hum Definition
%
Wind Dir Definition
10's deg

Wind Spd Definition
km/h
Visibility Definition
km
Stn Press Definition
kPa
Hmdx Definition


Wind Chill Definition


Weather Definition


TIME
00:00 Legend Double Dagger 7.4 -0.5 57 29 17 64.4 98.14     LegendNANA
01:00 Legend Double Dagger 7.2 0.4 62 29 12 64.4 98.11     Cloudy
02:00 Legend Double Dagger 6.7 0.4 64 26 11 64.4 98.13     LegendNANA
03:00 Legend Double Dagger 6.7 0.8 66 27 12 64.4 98.12     LegendNANA
04:00 Legend Double Dagger 6.8 0.0 62 25 10 64.4 98.18     Cloudy
05:00 Legend Double Dagger 6.8 -0.2 61 26 8 64.4 98.19     LegendNANA
06:00 Legend Double Dagger 6.8 -0.4 60 24 4 64.4 98.22     LegendNANA
07:00 Legend Double Dagger 7.2 -0.5 58 22 7 64.4 98.25     Cloudy
08:00 Legend Double Dagger 6.3 2.0 74 9 6 64.4 98.27     LegendNANA
09:00 Legend Double Dagger 6.9 1.4 68 9 8 64.4 98.27     LegendNANA
10:00 Legend Double Dagger 7.3 2.0 69 9 6 64.4 98.29     Cloudy
11:00 Legend Double Dagger 7.8 2.7 70 10 9 64.4 98.26     LegendNANA
12:00
13:00 Legend Double Dagger 8.4 0.9 59 10 8 64.4 98.14     Cloudy
14:00 Legend Double Dagger 8.4 0.9 59 9 7 64.4 98.09     LegendNANA
15:00 Legend Double Dagger 8.7 0.9 58 11 4 64.4 98.04     LegendNANA
16:00 Legend Double Dagger 8.6 0.6 57 8 3 64.4 98.03     Cloudy
17:00 Legend Double Dagger 7.8 1.4 64 10 7 64.4 98.00     LegendNANA
18:00 Legend Double Dagger 7.9 1.5 64 11 9 64.4 97.96     LegendNANA
19:00 Legend Double Dagger 7.3 2.2 70 11 10 64.4 97.91     Cloudy
20:00 Legend Double Dagger 6.5 1.6 71 10 15 64.4 97.85     LegendNANA
21:00 Legend Double Dagger 5.4 1.3 75 9 14 64.4 97.85     LegendNANA
22:00 Legend Double Dagger 3.7 0.9 82 9 13 64.4 97.83     Mostly Cloudy
23:00 Legend Double Dagger 2.8 0.2 83 7 9 64.4 97.82     LegendNANA

Notes on Data Quality.

Legend

  • E = Estimated
  • M = Missing
  • NA = Not Available
  • ‡ = Partner data that is not subject to review by the National Climate Archives
Date modified: